1516928401.04,4234,9.0,73644.0,-2.41,-27.89,-27.03,0,*64
1516928402.28,4235,9.0,73644.8,-2.41,-27.83,-26.87,0,*62
1516928403.51,4236,9.0,73640.8,-2.41,-27.89,-26.87,0,*6B
1516928404.72,4237,9.0,73640.5,-2.43,-27.93,-27.03,0,*6E
1516928405.93,4238,9.0,73642.5,-2.43,-27.93,-27.03,0,*61
1516928407.15,4239,8.94,73642.3,-2.45,-27.93,-26.93,0,*6E
1516928408.36,4240,9.0,73640.5,-2.43,-27.89,-26.87,0,*68
1516928409.59,4241,9.0,73640.3,-2.43,-27.77,-26.93,0,*6D
1516928410.79,4242,8.94,73638.0,-2.43,-27.77,-26.87,0,*6B
1516928412.0,4243,9.0,73640.8,-2.43,-27.77,-27.03,0,*67
1516928413.24,4244,9.0,73636.0,-2.43,-27.61,-26.87,0,*6A
1516928414.44,4245,8.94,73632.3,-2.43,-27.71,-26.87,0,*6A
1516928415.67,4246,9.0,73638.5,-2.43,-27.71,-26.77,0,*66
1516928416.93,4247,9.0,73636.5,-2.45,-27.61,-26.77,0,*60
1516928418.16,4248,9.0,73636.0,-2.43,-27.71,-26.71,0,*6E
1516928419.39,4249,9.0,73636.3,-2.43,-27.51,-26.55,0,*6B
1516928420.59,4250,9.0,73636.0,-2.43,-27.51,-26.61,0,*64
1516928421.82,4251,9.0,73636.3,-2.43,-27.51,-26.55,0,*62
1516928423.02,4252,9.0,73634.0,-2.43,-27.55,-26.61,0,*62
1516928424.25,4253,9.0,73632.5,-2.43,-27.55,-26.77,0,*64
1516928425.48,4254,9.0,73634.5,-2.43,-27.55,-26.71,0,*65
1516928426.71,4255,8.94,73628.8,-2.43,-27.55,-26.71,0,*64
1516928427.94,4256,9.0,73636.3,-2.43,-27.51,-26.71,0,*63
1516928429.16,4257,9.0,73634.8,-2.45,-27.55,-26.71,0,*60
1516928430.39,4258,9.0,73632.3,-2.43,-27.55,-26.77,0,*6F
1516928431.62,4259,9.0,73634.5,-2.43,-27.55,-26.77,0,*6E
1516928432.84,4260,8.94,73634.8,-2.45,-27.55,-26.71,0,*64
1516928434.11,4261,9.0,73632.8,-2.43,-27.61,-26.77,0,*62
1516928435.34,4262,9.0,73634.8,-2.43,-27.71,-26.77,0,*60
1516928436.57,4263,9.0,73634.8,-2.43,-27.71,-26.77,0,*61
1516928437.8,4264,9.0,73636.3,-2.43,-27.71,-26.77,0,*66
1516928439.06,4265,9.0,73634.5,-2.43,-27.61,-26.77,0,*66
1516928440.26,4266,9.0,73638.8,-2.45,-27.71,-26.87,0,*6D
1516928441.5,4267,9.0,73638.5,-2.43,-27.61,-26.87,0,*6B
1516928442.7,4268,9.0,73636.5,-2.45,-27.51,-26.61,0,*69
1516928443.93,4269,9.0,73640.5,-2.45,-27.55,-26.77,0,*6B
1516928445.16,4270,9.0,73638.3,-2.43,-27.55,-26.77,0,*65
1516928446.39,4271,9.0,73636.5,-2.43,-27.51,-26.71,0,*66
1516928447.62,4272,9.0,73640.0,-2.43,-27.55,-26.77,0,*67
1516928448.85,4273,9.0,73640.5,-2.43,-27.55,-26.77,0,*66
1516928450.08,4274,9.0,73646.3,-2.43,-27.71,-26.77,0,*67
1516928451.32,4275,9.0,73640.0,-2.43,-27.61,-26.87,0,*68
1516928452.58,4276,9.0,73640.0,-2.43,-27.61,-26.77,0,*64
1516928453.81,4277,9.0,73642.5,-2.45,-27.71,-26.77,0,*62
1516928455.03,4278,9.0,73642.0,-2.45,-27.51,-26.55,0,*6F
1516928456.23,4279,8.94,73638.5,-2.43,-27.51,-26.61,0,*6F
1516928457.46,4280,9.0,73642.3,-2.43,-27.51,-26.55,0,*6E
1516928458.69,4281,9.0,73640.3,-2.43,-27.51,-26.55,0,*6F
1516928459.91,4282,9.0,73642.5,-2.43,-27.51,-26.55,0,*6C
1516928461.11,4283,9.0,73642.8,-2.45,-27.51,-26.61,0,*6C
1516928462.34,4284,9.0,73646.8,-2.43,-27.55,-26.77,0,*6E
1516928463.57,4285,9.0,73644.0,-2.43,-27.55,-26.71,0,*69
1516928464.83,4286,9.0,73642.3,-2.43,-27.61,-26.71,0,*6D
1516928466.03,4287,8.94,73642.0,-2.45,-27.55,-26.61,0,*6C
1516928467.25,4288,8.94,73642.3,-2.45,-27.55,-26.71,0,*62
1516928468.48,4289,8.94,73642.5,-2.45,-27.55,-26.71,0,*63
1516928469.7,4290,9.0,73642.0,-2.45,-27.51,-26.55,0,*69
1516928470.93,4291,9.0,73642.3,-2.43,-27.51,-26.55,0,*6E
1516928472.13,4292,8.94,73642.8,-2.45,-27.51,-26.61,0,*6C
1516928473.35,4293,9.0,73640.5,-2.45,-27.51,-26.55,0,*6A
1516928474.58,4294,8.94,73638.8,-2.43,-27.39,-26.45,0,*64
1516928475.8,4295,8.94,73638.8,-2.43,-27.39,-26.45,0,*65
1516928477.05,4296,9.0,73638.8,-2.45,-27.39,-26.55,0,*61
1516928478.31,4297,9.0,73636.5,-2.45,-27.23,-26.33,0,*6B
1516928479.56,4298,9.0,73636.5,-2.43,-27.35,-26.33,0,*65
1516928480.8,4299,9.0,73638.8,-2.43,-27.39,-26.39,0,*62
1516928482.03,4300,8.94,73632.3,-2.43,-27.39,-26.39,0,*63
1516928483.26,4301,8.94,73634.3,-2.43,-27.35,-26.45,0,*65
1516928484.48,4302,9.0,73636.3,-2.45,-27.39,-26.39,0,*67
1516928485.72,4303,9.0,73638.0,-2.43,-27.39,-26.39,0,*60
1516928486.95,4304,9.0,73634.3,-2.43,-27.39,-26.39,0,*67
1516928488.18,4305,9.0,73628.5,-2.43,-27.39,-26.45,0,*6D
1516928489.41,4306,8.94,73632.3,-2.43,-27.39,-26.45,0,*6E
1516928490.66,4307,8.94,73634.0,-2.45,-27.35,-26.33,0,*64
1516928491.9,4308,9.0,73632.0,-2.43,-27.39,-26.39,0,*6B
1516928493.12,4309,8.94,73634.5,-2.43,-27.39,-26.45,0,*61
1516928494.36,4310,8.94,73632.3,-2.43,-27.35,-26.39,0,*6E
1516928495.61,4311,9.0,73632.8,-2.43,-27.35,-26.33,0,*65
1516928496.86,4312,9.0,73634.8,-2.43,-27.19,-26.33,0,*68
1516928498.08,4313,8.94,73632.5,-2.43,-27.19,-26.23,0,*68
1516928499.31,4314,9.0,73634.8,-2.43,-27.23,-26.23,0,*66
1516928500.58,4315,9.0,73638.8,-2.41,-27.19,-26.17,0,*6B
1516928501.84,4316,9.0,73638.0,-2.41,-27.29,-26.17,0,*6B
1516928503.11,4317,9.0,73638.0,-2.41,-27.19,-26.17,0,*69
1516928504.37,4318,9.0,73632.0,-2.41,-27.29,-26.33,0,*63
1516928505.65,4319,9.0,73636.0,-2.41,-27.35,-26.33,0,*6F
1516928506.9,4320,9.0,73634.3,-2.41,-27.35,-26.39,0,*6F
1516928508.18,4321,8.94,73628.5,-2.41,-27.19,-26.33,0,*6A
1516928509.44,4322,8.94,73628.8,-2.41,-27.29,-26.29,0,*61
1516928510.71,4323,9.0,73634.5,-2.41,-27.19,-26.17,0,*6E
1516928511.98,4324,9.0,73636.5,-2.41,-27.19,-26.17,0,*69
1516928513.25,4325,8.94,73634.8,-2.41,-27.29,-26.29,0,*66
1516928514.5,4326,9.0,73636.8,-2.39,-27.19,-26.17,0,*64
1516928515.75,4327,9.0,73632.5,-2.39,-27.19,-26.17,0,*65
1516928516.99,4328,8.94,73628.8,-2.39,-27.29,-26.29,0,*64
1516928518.25,4329,8.94,73634.0,-2.39,-27.35,-26.29,0,*68
1516928519.51,4330,9.0,73634.3,-2.37,-27.29,-26.29,0,*63
1516928520.76,4331,9.0,73636.0,-2.41,-27.35,-26.49,0,*68
1516928522.01,4332,9.0,73638.3,-2.39,-27.19,-26.17,0,*61
1516928523.26,4333,8.94,73634.0,-2.41,-27.13,-26.17,0,*65
1516928524.51,4334,8.94,73638.3,-2.41,-27.13,-26.17,0,*62
1516928525.79,4335,9.0,73636.5,-2.41,-27.35,-26.29,0,*6A
1516928527.01,4336,9.0,73636.3,-2.39,-27.29,-26.39,0,*6A
1516928528.27,4337,9.0,73638.5,-2.41,-27.29,-26.33,0,*6E
1516928529.55,4338,9.0,73638.0,-2.41,-27.35,-26.29,0,*67
1516928530.81,4339,9.0,73638.8,-2.41,-27.29,-26.33,0,*60
1516928532.06,4340,9.0,73636.0,-2.39,-27.19,-26.29,0,*69
1516928533.3,4341,9.0,73636.0,-2.39,-27.29,-26.17,0,*66
1516928534.57,4342,9.0,73638.5,-2.41,-27.19,-26.17,0,*69
1516928535.85,4343,9.0,73638.8,-2.41,-27.19,-26.29,0,*65
1516928537.11,4344,9.0,73632.5,-2.41,-27.29,-26.33,0,*6A
1516928538.39,4345,9.0,73632.5,-2.41,-27.35,-26.33,0,*66
1516928539.62,4346,9.0,73634.3,-2.39,-27.35,-26.39,0,*60
1516928540.86,4347,9.0,73632.3,-2.39,-27.35,-26.39,0,*61
1516928542.14,4348,8.94,73634.8,-2.41,-27.35,-26.33,0,*6B
1516928543.37,4349,8.94,73632.0,-2.39,-27.35,-26.39,0,*6F
1516928544.6,4350,9.0,73632.8,-2.39,-27.35,-26.39,0,*67
1516928545.86,4351,9.0,73634.3,-2.41,-27.45,-26.39,0,*6E
1516928547.15,4352,9.0,73636.8,-2.41,-27.45,-26.33,0,*67
1516928548.41,4353,9.0,73638.5,-2.39,-27.35,-26.33,0,*6E
1516928549.64,4354,9.0,73634.5,-2.39,-27.29,-26.17,0,*62
1516928550.9,4355,8.94,73632.0,-2.41,-27.35,-26.39,0,*6D
1516928552.13,4356,8.94,73632.0,-2.41,-27.29,-26.39,0,*63
1516928553.35,4357,8.94,73630.5,-2.39,-27.29,-26.39,0,*6D
1516928554.63,4358,9.0,73632.5,-2.41,-27.35,-26.33,0,*6A
1516928555.91,4359,9.0,73632.5,-2.41,-27.35,-26.33,0,*6B
1516928557.17,4360,9.0,73630.3,-2.39,-27.35,-26.33,0,*6E
1516928558.42,4361,8.94,73630.8,-2.39,-27.19,-26.17,0,*67
1516928559.69,4362,9.0,73630.5,-2.41,-27.19,-26.13,0,*6F
1516928560.92,4363,8.94,73632.8,-2.39,-27.19,-26.03,0,*60
1516928562.16,4364,8.94,73634.8,-2.39,-27.13,-26.13,0,*6C
1516928563.39,4365,9.0,73632.0,-2.39,-27.13,-26.13,0,*6D
1516928564.66,4366,8.94,73630.8,-2.41,-27.19,-26.17,0,*6F
1516928565.92,4367,9.0,73632.8,-2.39,-27.19,-26.17,0,*61
1516928567.19,4368,8.94,73632.8,-2.41,-27.19,-26.13,0,*65
1516928568.42,4369,8.94,73628.5,-2.39,-27.13,-26.13,0,*61
1516928569.67,4370,9.0,73632.5,-2.39,-27.19,-26.17,0,*67
1516928570.92,4371,9.0,73628.5,-2.39,-27.29,-26.29,0,*68
1516928572.17,4372,9.0,73632.0,-2.39,-27.19,-26.29,0,*68
1516928573.44,4373,9.0,73630.8,-2.41,-27.19,-26.13,0,*6F
1516928574.72,4374,9.0,73630.8,-2.41,-27.19,-26.29,0,*61
1516928575.95,4375,9.0,73634.0,-2.39,-27.13,-26.13,0,*6C
1516928577.21,4376,9.0,73628.3,-2.39,-27.19,-26.13,0,*65
1516928578.46,4377,9.0,73628.8,-2.39,-27.19,-26.17,0,*60
1516928579.69,4378,8.94,73632.8,-2.39,-27.13,-26.13,0,*61
1516928580.96,4379,9.0,73632.0,-2.41,-27.19,-26.17,0,*61
1516928582.22,4380,8.94,73630.5,-2.39,-27.35,-26.29,0,*6B
1516928583.48,4381,9.0,73628.5,-2.41,-27.29,-26.29,0,*68
1516928584.72,4382,8.94,73624.0,-2.39,-27.29,-26.29,0,*64
1516928585.94,4383,9.0,73628.8,-2.39,-27.13,-26.03,0,*64
1516928587.17,4384,9.0,73628.5,-2.41,-27.03,-26.03,0,*6D
1516928588.4,4385,9.0,73626.0,-2.39,-27.13,-26.13,0,*63
1516928589.64,4386,9.0,73630.8,-2.39,-27.29,-26.17,0,*6D
1516928590.9,4387,9.0,73630.0,-2.39,-27.35,-26.17,0,*61
1516928592.14,4388,8.94,73628.3,-2.39,-27.29,-26.17,0,*63
1516928593.37,4389,9.0,73630.5,-2.41,-27.13,-26.03,0,*61
1516928594.58,4390,9.0,73630.8,-2.39,-27.13,-26.03,0,*66
1516928595.83,4391,8.94,73624.8,-2.39,-27.19,-26.13,0,*6C
1516928597.09,4392,8.94,73626.8,-2.39,-27.19,-26.13,0,*6F
1516928598.34,4393,8.94,73630.0,-2.39,-27.19,-26.13,0,*6E
1516928599.58,4394,9.0,73630.3,-2.39,-27.29,-26.17,0,*6E
1516928600.84,4395,8.94,73630.0,-2.41,-27.29,-26.17,0,*60
1516928602.09,4396,9.0,73630.3,-2.39,-27.19,-26.13,0,*6B
1516928603.32,4397,8.94,73630.8,-2.39,-27.19,-26.03,0,*6B
1516928604.54,4398,8.94,73630.0,-2.39,-27.03,-26.03,0,*6F
1516928605.78,4399,8.94,73630.0,-2.39,-27.03,-25.97,0,*60
1516928607.03,4400,9.0,73634.0,-2.39,-27.19,-26.17,0,*67
1516928608.27,4401,9.0,73636.5,-2.39,-27.29,-26.29,0,*68
1516928609.5,4402,8.94,73632.8,-2.41,-27.03,-26.03,0,*64
1516928610.72,4403,8.94,73634.3,-2.39,-27.03,-26.03,0,*6A
1516928611.97,4404,8.94,73630.0,-2.41,-27.13,-26.13,0,*62
1516928613.18,4405,9.0,73634.3,-2.39,-27.13,-26.03,0,*6D
1516928614.43,4406,9.0,73636.3,-2.41,-27.19,-26.03,0,*6B
1516928615.69,4407,9.0,73634.3,-2.39,-27.19,-26.13,0,*64
1516928616.94,4408,9.0,73634.8,-2.39,-27.19,-26.17,0,*6F
1516928618.18,4409,8.94,73632.8,-2.39,-27.29,-26.29,0,*60
1516928619.42,4410,9.0,73636.8,-2.39,-27.29,-26.17,0,*65
1516928620.67,4411,9.0,73638.8,-2.39,-27.19,-26.13,0,*63
1516928621.91,4412,9.0,73636.8,-2.39,-27.29,-26.13,0,*63
1516928623.15,4413,8.94,73632.0,-2.39,-27.13,-26.13,0,*6B
1516928624.39,4414,9.0,73638.8,-2.39,-27.29,-26.13,0,*65
1516928625.63,4415,9.0,73640.5,-2.39,-27.29,-26.13,0,*64
1516928626.88,4416,8.94,73634.8,-2.39,-27.19,-26.17,0,*60
1516928628.1,4417,9.0,73636.3,-2.39,-27.29,-26.03,0,*67
1516928629.35,4418,8.94,73632.3,-2.41,-27.19,-26.03,0,*64
1516928630.62,4419,8.94,73634.8,-2.41,-27.19,-26.13,0,*64
1516928631.88,4420,9.0,73636.8,-2.41,-27.19,-26.03,0,*6F
1516928633.13,4421,8.94,73634.0,-2.41,-27.13,-26.13,0,*65
1516928634.38,4422,9.0,73638.3,-2.39,-27.19,-26.13,0,*63
1516928635.6,4423,9.0,73638.0,-2.39,-27.29,-26.03,0,*60
1516928636.84,4424,8.94,73634.0,-2.39,-27.13,-25.97,0,*60
1516928638.1,4425,8.94,73634.0,-2.41,-27.03,-25.97,0,*6F
1516928639.33,4426,9.0,73634.8,-2.39,-27.19,-26.03,0,*66
1516928640.57,4427,8.94,73630.0,-2.39,-27.13,-25.97,0,*63
1516928641.82,4428,8.94,73634.3,-2.39,-27.19,-26.13,0,*69
1516928643.07,4429,8.94,73634.0,-2.41,-27.19,-26.03,0,*66
1516928644.34,4430,8.94,73632.0,-2.39,-26.97,-25.97,0,*68
1516928645.58,4431,8.94,73630.3,-2.39,-26.97,-25.87,0,*68
1516928646.8,4432,8.94,73632.5,-2.41,-27.03,-25.87,0,*68
1516928648.03,4433,9.0,73632.3,-2.41,-27.03,-25.87,0,*69
1516928649.29,4434,9.0,73632.0,-2.39,-27.19,-26.13,0,*64
1516928650.52,4435,8.94,73628.0,-2.39,-27.19,-26.03,0,*64
1516928651.77,4436,9.0,73630.3,-2.41,-27.19,-26.03,0,*68
1516928653.03,4437,8.94,73628.8,-2.41,-27.13,-25.97,0,*6D
1516928654.26,4438,8.94,73630.0,-2.39,-27.03,-25.97,0,*6C
1516928655.52,4439,8.94,73628.5,-2.39,-27.19,-25.97,0,*66
1516928656.77,4440,9.0,73632.5,-2.39,-27.19,-25.97,0,*68
1516928658.03,4441,8.94,73628.5,-2.39,-27.19,-26.13,0,*66
1516928659.27,4442,8.94,73630.3,-2.39,-27.03,-25.97,0,*61
1516928660.5,4443,9.0,73632.0,-2.39,-27.03,-25.97,0,*60
1516928661.76,4444,9.0,73630.5,-2.41,-27.13,-25.97,0,*69
1516928663.04,4445,8.94,73628.8,-2.41,-27.19,-25.97,0,*62
1516928664.32,4446,8.94,73630.3,-2.41,-26.97,-25.81,0,*61
1516928665.55,4447,9.0,73630.8,-2.39,-26.87,-25.81,0,*6E
1516928666.82,4448,8.94,73628.5,-2.39,-26.97,-25.97,0,*67
1516928668.09,4449,9.0,73630.5,-2.39,-26.97,-25.97,0,*66
1516928669.32,4450,8.94,73630.3,-2.39,-27.13,-25.97,0,*63
1516928670.61,4451,9.0,73630.8,-2.41,-26.97,-25.97,0,*60
1516928671.82,4452,8.94,73632.0,-2.39,-27.03,-25.87,0,*61
1516928673.06,4453,9.0,73634.3,-2.39,-27.03,-25.97,0,*61
1516928674.29,4454,9.0,73630.5,-2.39,-26.97,-25.87,0,*6B
1516928675.5,4455,8.94,73630.3,-2.39,-27.03,-25.87,0,*66
1516928676.71,4456,9.0,73634.5,-2.39,-27.03,-25.87,0,*65
1516928677.97,4457,8.94,73628.0,-2.41,-26.97,-25.87,0,*67
1516928679.23,4458,8.94,73628.3,-2.41,-26.97,-25.87,0,*68
1516928680.49,4459,8.94,73628.5,-2.39,-26.97,-25.81,0,*60
1516928681.76,4460,8.94,73630.0,-2.39,-26.81,-25.71,0,*62
1516928683.03,4461,8.94,73630.3,-2.39,-26.81,-25.71,0,*63
1516928684.26,4462,9.0,73628.3,-2.39,-26.87,-25.81,0,*69
1516928685.53,4463,9.0,73632.5,-2.39,-26.97,-25.81,0,*69
1516928686.82,4464,9.0,73630.5,-2.41,-26.81,-25.71,0,*69
1516928688.06,4465,8.94,73628.0,-2.37,-26.65,-25.61,0,*62
1516928689.3,4466,9.0,73630.8,-2.39,-26.81,-25.65,0,*61
1516928690.53,4467,9.0,73632.0,-2.39,-26.87,-25.81,0,*6C
1516928691.79,4468,8.94,73628.8,-2.41,-27.03,-25.81,0,*61
1516928693.05,4469,9.0,73632.8,-2.37,-26.93,-25.65,0,*63
1516928694.34,4470,9.0,73634.5,-2.37,-26.93,-25.75,0,*6A
1516928695.63,4471,8.94,73630.8,-2.37,-26.93,-25.75,0,*6B
1516928696.92,4472,8.94,73628.8,-2.37,-26.93,-25.75,0,*68
1516928698.15,4473,9.0,73630.5,-2.39,-27.03,-25.81,0,*64
1516928699.39,4474,9.0,73632.3,-2.39,-27.03,-25.81,0,*63
1516928700.65,4475,8.94,73630.8,-2.39,-26.97,-25.81,0,*6E
1516928701.92,4476,9.0,73634.5,-2.39,-26.97,-25.81,0,*6D
1516928703.18,4477,9.0,73634.3,-2.39,-26.97,-25.81,0,*6C
1516928704.47,4478,9.0,73636.5,-2.37,-26.97,-25.75,0,*66
1516928705.73,4479,9.0,73634.8,-2.37,-27.13,-25.81,0,*61
1516928706.96,4480,9.0,73634.8,-2.37,-27.07,-25.91,0,*63
1516928708.26,4481,9.0,73634.8,-2.37,-26.97,-25.75,0,*60
1516928709.52,4482,8.94,73628.5,-2.37,-26.97,-25.65,0,*62
1516928710.81,4483,8.94,73630.3,-2.37,-26.93,-25.75,0,*66
1516928712.08,4484,8.94,73630.0,-2.37,-26.93,-25.65,0,*60
1516928713.34,4485,8.94,73626.8,-2.37,-26.81,-25.65,0,*62
1516928714.61,4486,8.94,73626.5,-2.37,-26.81,-25.65,0,*61
1516928715.88,4487,9.0,73630.3,-2.37,-26.77,-25.65,0,*69
1516928717.12,4488,8.94,73630.8,-2.37,-26.65,-25.49,0,*6B
1516928718.39,4489,9.0,73634.0,-2.37,-26.77,-25.61,0,*63
1516928719.63,4490,8.94,73628.8,-2.39,-26.87,-25.71,0,*6B
1516928720.92,4491,8.94,73628.3,-2.37,-26.81,-25.75,0,*66
1516928722.19,4492,8.94,73630.8,-2.37,-26.77,-25.49,0,*63
1516928723.46,4493,8.94,73630.8,-2.37,-26.77,-25.49,0,*62
1516928724.72,4494,9.0,73630.8,-2.37,-26.77,-25.61,0,*6F
1516928725.99,4495,9.0,73630.5,-2.37,-26.77,-25.61,0,*6E
1516928727.26,4496,9.0,73632.3,-2.37,-26.77,-25.49,0,*67
1516928728.53,4497,9.0,73628.5,-2.37,-26.93,-25.65,0,*62
1516928729.79,4498,9.0,73634.0,-2.37,-26.81,-25.65,0,*6E
1516928731.04,4499,9.0,73634.0,-2.37,-26.65,-25.61,0,*61
1516928732.28,4500,8.94,73630.3,-2.37,-26.65,-25.49,0,*6A
1516928733.57,4501,9.0,73628.5,-2.37,-26.81,-25.45,0,*6D
1516928734.83,4502,9.0,73632.3,-2.37,-26.77,-25.65,0,*65
1516928736.1,4503,9.0,73634.0,-2.37,-26.81,-25.65,0,*6D
1516928737.39,4504,9.0,73634.3,-2.37,-26.93,-25.75,0,*68
1516928738.65,4505,9.0,73632.3,-2.37,-26.93,-25.65,0,*68
1516928739.92,4506,8.94,73632.0,-2.37,-26.77,-25.61,0,*65
1516928741.19,4507,8.94,73628.5,-2.37,-26.81,-25.61,0,*6D
1516928742.42,4508,9.0,73628.8,-2.35,-26.87,-25.71,0,*67
1516928743.66,4509,9.0,73630.5,-2.35,-26.77,-25.61,0,*68
1516928744.93,4510,8.94,73626.8,-2.37,-26.93,-25.65,0,*6C
1516928746.19,4511,8.94,73626.3,-2.35,-26.77,-25.45,0,*67
1516928747.46,4512,9.0,73626.5,-2.37,-26.81,-25.61,0,*69
1516928748.73,4513,8.94,73622.8,-2.37,-26.81,-25.61,0,*68
1516928749.99,4514,9.0,73624.5,-2.37,-26.93,-25.65,0,*68
1516928751.25,4515,8.94,73624.0,-2.37,-26.93,-25.65,0,*69
1516928752.46,4516,9.0,73628.8,-2.35,-26.87,-25.61,0,*69
1516928753.73,4517,9.0,73624.5,-2.37,-26.77,-25.61,0,*65
1516928755.0,4518,9.0,73626.0,-2.37,-26.77,-25.61,0,*6A
1516928756.26,4519,9.0,73626.0,-2.37,-26.93,-25.65,0,*65
1516928757.53,4520,9.0,73630.5,-2.35,-26.77,-25.55,0,*64
1516928758.79,4521,8.94,73624.3,-2.37,-26.93,-25.61,0,*6A
1516928760.06,4522,9.0,73628.5,-2.37,-26.81,-25.61,0,*6A
1516928761.33,4523,8.94,73624.5,-2.37,-26.81,-25.61,0,*6B
1516928762.6,4524,8.94,73628.8,-2.37,-26.77,-25.61,0,*65
1516928763.87,4525,8.94,73628.8,-2.37,-26.81,-25.61,0,*6D
1516928765.14,4526,8.94,73626.3,-2.37,-26.81,-25.61,0,*6E
1516928766.38,4527,8.94,73628.8,-2.37,-26.65,-25.49,0,*6F
1516928767.64,4528,8.94,73626.8,-2.37,-26.65,-25.45,0,*6C
1516928768.93,4529,8.94,73630.0,-2.37,-26.81,-25.45,0,*67
1516928770.19,4530,8.94,73632.5,-2.35,-26.77,-25.45,0,*64
1516928771.45,4531,9.0,73636.3,-2.37,-26.93,-25.61,0,*6B
1516928772.72,4532,9.0,73636.3,-2.37,-26.97,-25.65,0,*68
1516928773.99,4533,9.0,73632.5,-2.37,-26.81,-25.65,0,*6E
1516928775.26,4534,8.94,73630.5,-2.37,-26.77,-25.61,0,*64
1516928776.53,4535,8.94,73634.5,-2.37,-26.81,-25.61,0,*6C
1516928777.79,4536,8.94,73632.3,-2.35,-26.93,-25.55,0,*69
1516928779.06,4537,9.0,73638.0,-2.37,-26.97,-25.61,0,*69
1516928780.27,4538,9.0,73636.8,-2.39,-27.03,-25.65,0,*60
1516928781.51,4539,9.0,73636.3,-2.39,-26.87,-25.55,0,*6F
1516928782.77,4540,9.0,73638.5,-2.37,-26.93,-25.49,0,*67
1516928784.04,4541,9.0,73636.0,-2.37,-26.97,-25.65,0,*6C
1516928785.31,4542,8.94,73634.0,-2.37,-26.77,-25.49,0,*6F
1516928786.58,4543,8.94,73632.3,-2.39,-26.81,-25.55,0,*64
1516928787.81,4544,9.0,73634.8,-2.39,-26.71,-25.39,0,*66
1516928789.05,4545,8.94,73632.0,-2.37,-26.65,-25.35,0,*60
1516928790.29,4546,8.94,73630.0,-2.35,-26.77,-25.39,0,*6E
1516928791.53,4547,8.94,73634.8,-2.37,-26.65,-25.35,0,*62
1516928792.79,4548,9.0,73630.5,-2.37,-26.77,-25.49,0,*65
1516928794.06,4549,8.94,73628.5,-2.37,-26.81,-25.61,0,*67
1516928795.33,4550,8.94,73624.5,-2.37,-26.77,-25.35,0,*67
1516928796.56,4551,8.94,73626.3,-2.37,-26.65,-25.35,0,*65
1516928797.8,4552,8.94,73626.3,-2.37,-26.65,-25.35,0,*66
1516928799.06,4553,8.94,73626.0,-2.37,-26.61,-25.29,0,*6E
1516928800.3,4554,8.94,73626.3,-2.35,-26.77,-25.39,0,*6D
1516928801.58,4555,8.94,73626.0,-2.37,-26.77,-25.45,0,*65
1516928802.81,4556,9.0,73628.8,-2.35,-26.55,-25.23,0,*64
1516928804.05,4557,9.0,73632.0,-2.37,-26.65,-25.35,0,*63
1516928805.31,4558,9.0,73632.3,-2.37,-26.77,-25.35,0,*6F
1516928806.57,4559,8.94,73630.5,-2.37,-26.81,-25.35,0,*67
1516928807.85,4560,8.94,73630.3,-2.37,-26.81,-25.45,0,*6A
1516928809.12,4561,8.94,73632.0,-2.37,-26.81,-25.49,0,*67
1516928810.39,4562,9.0,73632.5,-2.37,-26.81,-25.49,0,*64
1516928811.68,4563,8.94,73630.0,-2.37,-26.81,-25.45,0,*69
1516928812.96,4564,9.0,73634.0,-2.37,-26.81,-25.45,0,*6E
1516928814.2,4565,8.94,73626.3,-2.37,-26.65,-25.35,0,*62
1516928815.44,4566,8.94,73630.5,-2.35,-26.77,-25.39,0,*6C
1516928816.65,4567,9.0,73630.5,-2.39,-26.87,-25.49,0,*69
1516928817.9,4568,9.0,73628.5,-2.39,-26.81,-25.49,0,*60
1516928819.14,4569,9.0,73630.8,-2.39,-26.81,-25.39,0,*66
1516928820.35,4570,9.0,73628.0,-2.39,-26.65,-25.19,0,*66
1516928821.59,4571,9.0,73626.3,-2.39,-26.65,-25.29,0,*64
1516928822.83,4572,9.0,73624.8,-2.39,-26.71,-25.39,0,*63
1516928824.09,4573,9.0,73624.5,-2.37,-26.61,-25.29,0,*6C
1516928825.32,4574,8.94,73622.8,-2.37,-26.65,-25.23,0,*65
1516928826.55,4575,8.94,73620.5,-2.37,-26.61,-25.23,0,*60
1516928827.79,4576,8.94,73624.3,-2.37,-26.49,-25.13,0,*6A
1516928829.03,4577,8.94,73622.3,-2.37,-26.49,-25.13,0,*6B
1516928830.26,4578,9.0,73624.3,-2.37,-26.61,-25.23,0,*6D
1516928831.5,4579,8.94,73624.0,-2.37,-26.49,-25.13,0,*65
1516928832.73,4580,9.0,73622.5,-2.37,-26.45,-25.13,0,*6F
1516928833.97,4581,8.94,73618.3,-2.37,-26.45,-25.09,0,*65
1516928835.2,4582,8.94,73624.0,-2.37,-26.45,-25.13,0,*6D
1516928836.43,4583,9.0,73626.0,-2.37,-26.49,-25.13,0,*60
1516928837.67,4584,8.94,73622.8,-2.37,-26.49,-25.23,0,*64
1516928838.89,4585,8.94,73622.3,-2.35,-26.55,-25.19,0,*63
1516928840.13,4586,8.94,73622.0,-2.37,-26.65,-25.23,0,*68
1516928841.36,4587,8.94,73624.8,-2.35,-26.55,-25.19,0,*61
1516928842.6,4588,9.0,73626.3,-2.37,-26.65,-25.23,0,*66
1516928843.88,4589,8.94,73626.0,-2.37,-26.77,-25.45,0,*64
1516928845.15,4590,8.94,73628.3,-2.37,-26.65,-25.29,0,*65
1516928846.4,4591,8.94,73624.8,-2.35,-26.71,-25.29,0,*63
1516928847.64,4592,8.94,73624.8,-2.37,-26.65,-25.23,0,*6D
1516928848.84,4593,8.94,73624.0,-2.35,-26.61,-25.19,0,*63
1516928850.1,4594,8.94,73626.0,-2.37,-26.65,-25.29,0,*61
1516928851.34,4595,8.94,73626.3,-2.37,-26.61,-25.19,0,*67
1516928852.54,4596,9.0,73628.0,-2.35,-26.45,-25.19,0,*60
1516928853.78,4597,9.0,73628.0,-2.37,-26.65,-25.13,0,*6B
1516928854.98,4598,8.94,73626.5,-2.35,-26.61,-25.23,0,*61
1516928856.24,4599,8.94,73628.3,-2.37,-26.81,-25.35,0,*6B
1516928857.51,4600,8.94,73630.5,-2.37,-26.77,-25.23,0,*66
1516928858.74,4601,8.94,73624.8,-2.37,-26.61,-25.23,0,*60
1516928859.98,4602,8.94,73630.5,-2.37,-26.65,-25.23,0,*67
1516928861.19,4603,8.94,73630.5,-2.35,-26.65,-25.23,0,*64
1516928862.42,4604,8.94,73630.8,-2.37,-26.65,-25.23,0,*61
1516928863.65,4605,8.94,73628.5,-2.35,-26.71,-25.23,0,*67
1516928864.91,4606,8.94,73630.3,-2.37,-26.77,-25.23,0,*60
1516928866.2,4607,8.94,73630.0,-2.37,-26.77,-25.29,0,*6B
1516928867.49,4608,8.94,73626.5,-2.37,-26.77,-25.29,0,*64
1516928868.75,4609,9.0,73632.3,-2.37,-26.81,-25.35,0,*61
1516928869.96,4610,8.94,73628.3,-2.39,-26.87,-25.39,0,*6D
1516928871.21,4611,8.94,73630.3,-2.39,-26.71,-25.29,0,*64
1516928872.45,4612,8.94,73628.8,-2.41,-26.65,-25.19,0,*6E
1516928873.69,4613,8.94,73630.5,-2.37,-26.65,-25.09,0,*6F
1516928874.93,4614,9.0,73632.3,-2.37,-26.61,-25.09,0,*6C
1516928876.18,4615,8.94,73632.3,-2.39,-26.71,-25.29,0,*60
1516928877.42,4616,9.0,73630.3,-2.39,-26.81,-25.35,0,*61
1516928878.68,4617,8.94,73628.8,-2.39,-26.71,-25.29,0,*62
1516928879.9,4618,8.94,73628.8,-2.39,-26.65,-25.13,0,*61
1516928881.13,4619,8.94,73628.5,-2.39,-26.71,-25.19,0,*6F
1516928882.37,4620,8.94,73632.5,-2.39,-26.65,-25.29,0,*63
1516928883.58,4621,8.94,73628.3,-2.39,-26.65,-25.13,0,*6B
1516928884.82,4622,8.94,73634.5,-2.41,-26.65,-25.35,0,*63
1516928886.06,4623,8.94,73634.0,-2.37,-26.65,-25.13,0,*67
1516928887.29,4624,8.94,73632.0,-2.39,-26.71,-25.19,0,*61
1516928888.54,4625,8.94,73632.8,-2.41,-26.55,-25.19,0,*69
1516928889.75,4626,8.94,73630.5,-2.39,-26.65,-25.13,0,*6C
1516928890.99,4627,8.94,73632.8,-2.39,-26.71,-25.13,0,*68
1516928892.22,4628,8.94,73632.5,-2.41,-26.65,-25.13,0,*6D
1516928893.44,4629,8.94,73634.3,-2.39,-26.65,-25.13,0,*63
1516928894.66,4630,8.94,73632.8,-2.39,-26.65,-25.13,0,*6B
1516928895.87,4631,8.94,73634.5,-2.39,-26.65,-25.13,0,*6A
1516928897.11,4632,8.94,73632.5,-2.41,-26.65,-25.13,0,*66
1516928898.35,4633,8.94,73632.3,-2.41,-26.65,-25.13,0,*67
1516928899.58,4634,8.94,73632.5,-2.41,-26.65,-25.19,0,*6A
1516928900.81,4635,8.94,73634.0,-2.39,-26.71,-25.19,0,*61
1516928902.04,4636,8.94,73634.5,-2.39,-26.71,-25.19,0,*62
1516928903.27,4637,8.94,73632.5,-2.41,-26.49,-24.97,0,*60
1516928904.48,4638,9.0,73636.5,-2.39,-26.49,-24.97,0,*60
1516928905.7,4639,8.94,73634.3,-2.39,-26.65,-25.13,0,*62
1516928906.91,4640,8.94,73634.5,-2.39,-26.65,-25.13,0,*6C
1516928908.15,4641,8.94,73632.5,-2.39,-26.71,-25.13,0,*68
1516928909.38,4642,8.94,73632.8,-2.39,-26.65,-25.03,0,*6F
1516928910.59,4643,8.94,73634.5,-2.39,-26.49,-24.97,0,*6C
1516928911.83,4644,8.94,73632.0,-2.39,-26.39,-24.87,0,*6D
1516928913.06,4645,8.94,73628.5,-2.39,-26.49,-24.87,0,*6B
1516928914.27,4646,9.0,73632.8,-2.39,-26.49,-24.97,0,*69
1516928915.51,4647,8.94,73628.3,-2.39,-26.49,-24.87,0,*69
1516928916.74,4648,8.94,73628.0,-2.39,-26.49,-24.87,0,*66
1516928917.95,4649,8.94,73628.8,-2.39,-26.39,-24.97,0,*61
1516928919.16,4650,8.94,73628.0,-2.39,-26.39,-24.97,0,*69
1516928920.39,4651,8.94,73632.8,-2.41,-26.39,-24.97,0,*67